Regional Weather Roundup
Issued by NWS

Home | Current Version | Previous Version | Text Only | Print | Product List | Glossary On
Versions: 1 2 3 4 5 6 7 8 9 10 11 12 13 14 15 16 17 18 19 20 21 22 23 24 25 26 27 28 29 30 31 32 33 34 35 36 37 38 39 40 41 42 43 44 45 46 47 48 49 50
000
ASUS44 KJAN 021110
RWRMS

MISSISSIPPI HOURLY WEATHER ROUNDUP
NATIONAL WEATHER SERVICE JACKSON MS
600 AM CDT THU OCT 02 2014

NOTE: "FAIR: INDICATES FEW OR NO CLOUDS BELOW 12,000 FEET WITH NO
SIGNIFICANT WEATHER AND/OR OBSTRUCTIONS TO VISIBILITY.

MSZ001>002-007>008-010>013-018>021-025>028-034>036-021200-
NORTHWEST MISSISSIPPI

CITY           SKY/WX    TMP DP  RH WIND       PRES   REMARKS
CLARKSDALE     CLOUDY    75  72  88 S9        29.93R
CLEVELAND      CLOUDY    76  73  91 S10       29.91S
GREENWOOD      CLOUDY    73  70  90 S7        29.94R
GREENVILLE     CLOUDY    77  72  84 S10       29.91R
GRENADA        CLOUDY    70  68  94 CALM      29.95S
OLIVE BRANCH   CLEAR     68  68 100 S6        29.94R
OXFORD         CLOUDY    68  64  88 SE7       29.97S
TUNICA         PTSUNNY   70  66  88 S10       29.93R
$$

MSZ003>006-009-014>017-022>024-029>033-037>039-021200-
NORTHEAST MISSISSIPPI

CITY           SKY/WX    TMP DP  RH WIND       PRES   REMARKS
COLUMBUS AFB   MOCLDY    66  64  91 SE7       29.99R
CORINTH          N/A     63  59  88 CALM      29.97R
GOLDN TRIANGLE CLOUDY    68  61  77 SE7       29.98R
STARKVILLE     CLOUDY    68  64  88 CALM      29.98R
TUPELO         CLEAR     68  62  81 S3        29.98R
$$

MSZ040-058-021200-
CENTRAL MISSISSIPPI

CITY           SKY/WX    TMP DP  RH WIND       PRES   REMARKS
JACKSON INTL   CLOUDY    76  73  91 S7        29.96R
JACKSON HAWKNS CLOUDY    77  72  84 S8        29.96R
MERIDIAN KEY   CLOUDY    73  71  93 S5        29.99R
MERIDIAN NAS   CLOUDY    71  70  96 S3        29.99R
RAYMOND        FAIR      75  70  83 SE3       29.95R
VICKSBURG      MOCLDY    76  72  87 S7        29.93R
$$

MSZ059>079-021200-
SOUTH MISSISSIPPI

CITY           SKY/WX    TMP DP  RH WIND       PRES   REMARKS
BROOKHAVEN     CLOUDY    75  75 100 SE5       29.98R
COLUMBIA       CLOUDY    75  73  94 S5        29.96R
HATTIESBURG    CLOUDY    75  73  93 E3        29.98R
MCCOMB         CLOUDY    76  74  93 S5        29.97R
NATCHEZ        CLOUDY    75  73  94 S6        29.95R
PINE BELT      MOCLDY    73  70  88 S3        29.99R
$$

MSZ080>082-021200-
COASTAL MISSISSIPPI

CITY           SKY/WX    TMP DP  RH WIND       PRES   REMARKS
BILOXI         CLOUDY    80  77  90 S7        29.97R
PASCAGOULA     CLOUDY    74  73  97 CALM      29.98R
GULFPORT       PTCLDY    79  75  87 S5        29.96R
$$


USA.gov is the U.S. government's official web portal to all federal, state and local government web resources and services.